Regional Weather Roundup
Issued by NWS

Home | Current Version | Previous Version | Graphics & Text | Print | Product List | Glossary On
Versions: 1 2 3 4 5 6 7 8 9 10 11 12 13 14 15 16 17 18 19 20 21 22 23 24 25 26 27 28 29 30 31 32 33 34 35 36 37 38 39 40 41 42 43 44 45 46 47 48 49 50
000
ASUS45 KABQ 240101
RWRNM
NEW MEXICO REGIONAL WEATHER ROUNDUP
NATIONAL WEATHER SERVICE ALBUQUERQUE NM
700 PM MDT WED AUG 23 2017

NOTE: "FAIR" MEANS FEW OR NO CLOUDS BELOW 12,000 FEET AGL WITH NO
       SIGNIFICANT WEATHER OR OBSTRUCTIONS TO VISION.

      THIS PRODUCT IS RELEASED AS TWO VERSIONS.  ONE VERSION NEAR
      THE TOP OF THE HOUR CONTAINING PRELIMINARY DATA FROM ALBUQUERQUE
      AND OTHER STATIONS.  A FINAL VERSION WITH ADDITIONAL DATA IS
      ISSUED ABOUT 10 MINUTES AFTER THE HOUR.

NMZ501-503-504-510>518-240200-
NORTHWEST PLATEAU/NORTHCENTRAL MOUNTAINS

CITY           SKY/WX    TMP DP  RH WIND       PRES   REMARKS
FARMINGTON     FAIR      83  41  22 W8        30.09S
LOS ALAMOS     FAIR      72  47  41 SW9       30.26S
SANTA FE       FAIR      76  47  35 W8        30.18F
TAOS           FAIR      72  51  47 SW3       30.26F
ANGEL FIRE     FAIR      66  49  54 S5        30.35S

$$
NMZ402-403-502-505>509-240200-
WESTCENTRAL MOUNTAINS/SOUTHWEST MOUNTAINS

CITY           SKY/WX    TMP DP  RH WIND       PRES   REMARKS
GALLUP         FAIR      77  44  30 N8        30.19S
GRANTS         CLOUDY    62  52  69 S17G23    30.25F
SILVER CITY    LGT RAIN  64  58  80 NW14G20   30.17S

$$
NMZ407-409-411-412-240200-
SOUTHERN DESERTS

CITY           SKY/WX    TMP DP  RH WIND       PRES   REMARKS
DEMING         MOCLDY    75  55  49 N8        30.08S THUNDER
LAS CRUCES     CLOUDY    64  61  88 N17G38    30.11R VSB 1
HOLLOMAN AFB   FAIR      85  58  40 S18       30.04S
ALAMOGORDO     FAIR      84  57  39 S13G22    30.04R
T OR C         FAIR      84  54  35 S8        30.06S

$$
NMZ519>523-240200-
CENTRAL VALLEYS/CENTRAL HIGHLANDS

CITY           SKY/WX    TMP DP  RH WIND       PRES   REMARKS
ALBUQUERQUE    CLOUDY    81  43  26 E9        30.12S
DOUBLE EAGLE   MOCLDY    75  48  38 N14       30.18R
CLINES CORNERS MOCLDY    70  55  59 SE12G23   30.28R
BELEN          MOCLDY    81  46  29 N13       30.11S
SOCORRO        FAIR      85  49  28 NE5       30.07S

$$
NMZ524>526-539-540-240200-
SOUTHCENTRAL MOUNTAINS

CITY           SKY/WX    TMP DP  RH WIND       PRES   REMARKS
RUIDOSO        FAIR      66  59  77 SE8       30.29R

$$
NMZ527>531-240200-
NORTHEAST HIGHLANDS/NORTHEAST PLAINS

CITY           SKY/WX    TMP DP  RH WIND       PRES   REMARKS
LAS VEGAS      FAIR      68  57  68 S12       30.25R
RATON          FAIR      71  60  68 S15       30.19R
CLAYTON        FAIR      71  61  70 S10       30.14S

$$
NMZ532>537-240200-
EASTCENTRAL PLAINS

CITY           SKY/WX    TMP DP  RH WIND       PRES   REMARKS
SANTA ROSA     FAIR      78  58  49 SE9       30.10S
TUCUMCARI      MOCLDY    79  65  62 SE10      30.05F
CANNON AFB     FAIR      74  67  77 SE9       30.12S
CLOVIS AIRPORT FAIR      73  64  73 SE8       30.12S

$$
NMZ028-029-538-240200-
SOUTHEAST PLAINS

CITY           SKY/WX    TMP DP  RH WIND       PRES   REMARKS
ROSWELL        FAIR      85  61  44 SE9       30.04R
ARTESIA        FAIR      84  63  48 S12       30.04S
CARLSBAD       FAIR      82  71  69 CALM      30.01R
HOBBS          FAIR      81  63  54 SE9       30.06R


$$



USA.gov is the U.S. government's official web portal to all federal, state and local government web resources and services.